Location: Henderson
(36.0400°N, 114.9810°W)
Time: 17:18:13
(UTC-07:00)

Daily predictions for brighter satellites

Satellite Brightness Start Highest point End
(mag) Time Altitude Azimuth Time Altitude Azimuth Time Altitude Azimuth
Cosmos 1980 3.8 20:23:10 10° NNW 20:28:50 66° ENE 20:34:28 10° SSE
Meteor 2-5 Rocket 4.0 20:23:02 10° S 20:28:53 84° W 20:34:38 10° N
Cosmos 1934 Rocket 4.0 20:24:46 10° N 20:30:57 81° E 20:37:01 10° S
Lacrosse 5 4.4 20:30:14 10° N 20:31:26 11° NNE 20:32:37 10° NE
Cosmos 614 Rocket 4.2 20:28:22 10° S 20:33:22 48° ESE 20:38:22 10° NNE
Helios 1A 3.4 20:29:58 10° SE 20:33:55 45° ENE 20:37:53 10° N
Helios 1B rocket 2.6 20:31:17 10° NNE 20:35:21 51° E 20:39:21 10° S
Cosmos 1470 4.3 20:32:18 10° NNW 20:35:59 38° W 20:39:36 10° SSW
Cosmos 2237 Rocket 2.2 20:33:35 10° NNW 20:39:13 75° ENE 20:44:49 10° SSE
Cosmos 1842 Rocket 3.7 20:35:44 10° N 20:40:04 58° E 20:44:20 10° SSE
Cosmos 1605 Rocket 4.1 20:35:13 10° N 20:41:27 67° E 20:47:44 10° SSE
H-2A R/B 4.1 20:42:59 10° E 20:45:11 13° ENE 20:47:26 10° NE
ERS-1 Rocket 3.9 20:41:51 10° SE 20:46:14 31° ENE 20:50:39 10° N
Atlas Centaur 2 1.9 20:43:06 10° WSW 20:46:27 33° S 20:49:18 12° ESE
Lacrosse 4 Rocket 3.2 20:44:35 10° SW 20:48:31 38° WNW 20:52:34 10° N
USA 234 3.5 20:42:52 10° NE 20:49:05 46° SE 20:55:18 10° SSW
Cosmos 1674 4.0 20:47:29 11° SE 20:50:18 23° E 20:53:19 10° NE
Cosmos 2227 Rocket 3.1 20:45:32 10° SW 20:51:03 55° WNW 20:56:37 10° NNE
Cosmos 1184 Rocket 2.8 20:48:27 10° S 20:51:46 68° E 20:55:07 10° NNE
Meteor 1-24 Rocket 3.9 20:48:04 10° S 20:54:01 83° W 20:59:51 10° N
Cosmos 1741 Rocket 4.2 20:50:27 10° S 20:55:35 52° ESE 21:00:44 10° NNE
Cosmos 1727 Rocket 4.0 20:50:45 10° S 20:57:02 82° E 21:03:23 10° N
SEDSat Delta rocket 4.3 20:58:08 10° WSW 21:01:48 25° SSW 21:04:21 15° SSE
SL-16 R/B 2.6 20:57:14 10° N 21:02:42 47° ENE 21:07:03 16° SE
Tiangong 1 2.7 21:00:40 10° W 21:03:12 30° NNW 21:05:44 10° NE
In-Cosmos 22 4.3 20:58:48 10° S 21:04:28 88° E 21:10:16 10° N
ARGOS 4.2 21:01:49 14° ESE 21:05:38 31° ENE 21:10:19 10° N
Cosmos 1356 Rocket 4.1 21:03:33 13° SSE 21:06:56 37° E 21:10:53 10° NNE
Cosmos 1076 Rocket 4.0 21:04:14 12° SSE 21:07:57 41° E 21:12:04 10° NNE
SAR-Lupe-4 3.5 21:07:14 12° SSE 21:10:27 86° WSW 21:14:02 10° NNW
Aureole 2 Rocket 4.2 21:08:28 10° NW 21:12:09 34° WSW 21:15:37 10° SSW
NOSS 3-4 (A) 3.9 21:07:45 10° NNW 21:14:55 88° WSW 21:21:10 16° SSE
NOSS 3-4 (C) 3.9 21:07:50 10° NNW 21:15:01 89° WSW 21:21:14 16° SSE
Terra 4.0 21:16:20 10° ENE 21:17:16 11° ENE 21:18:13 10° NE
Okean 3 Rocket 3.5 21:15:08 10° S 21:19:38 83° E 21:24:08 10° N
Meteor 1-29 4.1 21:16:39 10° N 21:19:57 45° WNW 21:23:15 10° SSW
Cosmos 2219 Rocket 4.1 21:16:03 10° NW 21:20:33 25° WSW 21:25:01 10° SSW
Meteor 2-1 Rocket 4.4 21:15:16 10° NNW 21:21:05 76° W 21:26:45 10° S
Cosmos 2221 2.5 21:18:09 10° N 21:22:32 72° E 21:25:34 20° SSE
Cosmos 2333 Rocket 3.8 21:18:22 10° NW 21:23:10 29° WSW 21:27:57 10° SSW
Cosmos 2208 Rocket 4.2 21:26:33 10° N 21:31:51 62° ENE 21:34:57 25° SE
NOAA 11 4.1 21:27:58 19° SSE 21:31:56 79° ENE 21:37:23 10° N
RESURS DK-1 4.2 21:30:49 10° NNE 21:33:49 19° ENE 21:35:16 16° E
Cosmos 2227 4.3 21:28:32 10° S 21:34:07 55° ESE 21:39:42 10° NNE
Cosmos 1242 Rocket 2.6 21:31:35 10° N 21:35:16 62° E 21:36:40 34° SSE
SL-08 RB Rocket 4.2 21:34:11 27° SE 21:36:12 44° ENE 21:40:34 10° N
YAOGAN 11 4.4 21:35:53 28° SE 21:37:59 54° ENE 21:42:24 10° N
Cosmos 1766 Rocket 3.5 21:35:45 25° SSE 21:38:07 61° E 21:42:24 10° NNE
SPOT 1/Viking Rocket 4.1 21:37:13 26° ESE 21:39:34 41° ENE 21:44:23 10° N
USA 245 3.2 21:40:57 42° ESE 21:41:38 50° ENE 21:45:18 10° N
Meteor 1-21 Rocket 4.3 21:40:29 10° S 21:46:12 82° W 21:51:51 10° N
Cosmos 1570 Rocket 4.0 21:40:59 10° NNW 21:46:18 87° WSW 21:49:10 28° SSE
SL-14 R/B 4.0 21:46:09 33° ESE 21:46:30 34° E 21:50:05 10° NNE
Cosmos 1328 Rocket 4.4 21:45:19 10° NNE 21:49:12 31° ENE 21:49:54 29° E
Cosmos 2228 Rocket 4.1 21:47:00 10° NNE 21:51:06 31° ENE 21:51:58 29° E
Cosmos 1328 4.3 21:51:24 38° ESE 21:51:47 39° E 21:55:34 10° NNE
Cosmos 1743 Rocket 4.0 21:54:02 37° ESE 21:54:35 39° E 21:58:38 10° NNE
H-2A R/B 3.8 21:54:27 18° E 21:55:05 18° ENE 21:58:02 10° NNE
EO 1 Delta rocket 4.0 21:54:28 36° SE 21:56:09 55° ENE 22:00:39 10° N
MINOTAUR IV R/B 4.5 21:53:42 20° SSW 21:56:51 84° ESE 22:01:23 10° NNE
Cosmos 1867 4.3 21:52:03 10° SW 21:57:21 53° WNW 22:02:42 10° NNE
Cosmos 1626 4.4 22:00:20 14° ENE 22:00:20 14° ENE 22:01:20 10° NE
Cosmos 1300 3.3 21:56:17 10° N 21:59:54 39° E 22:00:02 39° E
Delta 2 Rocket 4.4 21:54:50 10° SW 22:00:17 44° SSE 22:02:10 33° ESE
Cosmos 1151 Rocket 4.4 21:57:58 10° NNE 22:01:31 23° ENE 22:01:42 23° E
MetOp-B 4.4 21:58:34 24° S 22:01:45 63° WSW 22:07:05 10° NNW
Cosmos 2263 Rocket 2.9 22:03:21 31° ESE 22:03:34 31° ESE 22:08:26 10° NE
Cosmos 1726 1.9 22:04:14 10° N 22:07:54 70° E 22:08:04 68° ESE
SPOT 5 3.0 22:07:35 35° S 22:09:32 71° WSW 22:14:32 10° NNW
Cosmos 1459 Rocket 4.4 22:03:54 10° NNW 22:10:05 61° W 22:14:09 22° SSW
IGS 5A 4.4 22:10:27 31° ENE 22:10:40 32° ENE 22:14:22 10° N
Cosmos 2061 Rocket 4.3 22:05:23 10° NNW 22:11:42 67° W 22:15:41 24° SSW
ATLAS 5 CENTAUR R/B 4.1 22:08:38 10° WSW 22:12:30 25° NW 22:16:39 10° N
OAO 1 Rocket 4.3 22:08:51 10° W 22:14:13 78° S 22:16:37 33° E
Lacrosse 5 2.7 22:10:51 10° NNW 22:15:39 42° NE 22:17:19 32° E
Meteor 2-10 4.2 22:11:26 10° N 22:17:01 65° E 22:18:41 45° SE
Cosmos 2123 Rocket 3.9 22:15:13 28° S 22:18:41 87° W 22:24:54 10° N
Cosmos 468 Rocket 3.8 22:15:30 10° NNW 22:20:39 83° ENE 22:21:53 53° SSE
Cosmos 371 Rocket 3.5 22:17:39 10° N 22:22:22 54° ENE 22:23:03 49° E
H-2A R/B 2.1 22:22:03 43° S 22:23:51 77° WSW 22:29:16 10° NNW
Cosmos 1603 3.6 22:24:07 10° NNW 22:29:48 89° ENE 22:31:12 53° SSE
USA 234 4.2 22:25:51 10° NNE 22:32:02 47° NW 22:38:13 10° WSW
Cosmos 1455 4.2 22:30:49 10° NNE 22:32:48 19° NE 22:32:48 19° NE
Cosmos 220 Rocket 4.4 22:34:08 43° SW 22:35:22 63° WNW 22:39:45 10° N
Tiangong 1 3.5 22:37:09 10° NW 22:39:04 19° N 22:39:04 19° N
Landsat 7 3.8 22:38:42 62° SSW 22:39:23 73° WSW 22:44:10 10° NNW
Milstar 3 Cent rocket 4.5 22:34:04 10° W 22:42:32 42° SSW 22:47:28 34° SSE
deb Chang Zheng 4 3.7 22:40:29 10° NNE 22:44:23 64° ENE 22:44:23 64° ENE
Cosmos 1725 Rocket 4.2 22:38:54 10° NNW 22:45:05 66° W 22:47:15 41° SSW
SL-16 R/B 4.1 22:42:22 10° NW 22:46:23 20° W 22:48:57 15° SW
Cosmos 1943 3.3 22:41:23 10° NNW 22:46:59 60° ENE 22:47:48 54° ESE
Sakura Rocket 4.5 22:43:48 10° WSW 22:49:07 37° SSW 22:49:07 37° SSW
Cosmos 1703 3.9 22:51:37 50° NNE 22:51:37 50° NNE 22:54:39 10° N
Cosmos 2058 3.1 22:51:16 71° NNW 22:51:16 71° NNW 22:55:03 10° N
CZ-4C R/B 4.0 22:54:51 16° ENE 22:54:51 16° ENE 22:56:31 10° ENE
CZ-4B R/B 3.6 22:47:58 10° NNE 22:53:06 61° E 22:53:06 61° E
CZ-4 R/B 3.7 22:48:50 10° NNE 22:53:34 77° E 22:53:34 77° E
Terra 1.8 22:54:08 73° SW 22:54:20 74° WSW 22:59:06 10° NNW
Cosmos 540 Rocket 4.4 22:53:37 10° N 22:58:18 34° ENE 22:58:26 34° ENE
Cosmos 1500 Rocket 4.3 22:59:25 44° WSW 22:59:56 46° W 23:04:14 10° N
ERBS 4.3 22:59:18 10° NNW 23:01:14 28° N 23:01:14 28° N
Cosmos 1354 Rocket 3.8 23:06:55 88° SSE 23:06:57 89° ESE 23:12:13 10° NNE
Cosmos 2151 3.8 23:07:09 44° W 23:07:12 44° W 23:11:19 10° N
CARTOSAT-1 4.4 23:09:48 44° W 23:09:48 44° W 23:13:35 10° NNW
Cosmos 1464 Rocket 4.3 23:04:11 10° N 23:10:09 50° E 23:10:36 49° E
RESURS DK-1 3.9 23:08:12 10° NW 23:11:11 29° W 23:11:11 29° W
Spot 4 3.9 23:18:33 76° NNW 23:18:33 76° NNW 23:23:03 10° NNW
Cosmos 1805 Rocket 4.3 23:19:58 47° NNE 23:19:58 47° NNE 23:23:07 10° N
CZ-2C R/B 3.8 23:15:06 10° NNE 23:18:36 30° ENE 23:18:36 30° ENE
Cosmos 1633 Rocket 4.5 23:26:58 31° NE 23:26:58 31° NE 23:29:30 10° NNE
Cosmos 304 Rocket 4.1 23:23:25 10° NNW 23:27:27 61° N 23:27:27 61° N
H-2A R/B 3.5 23:31:35 32° WNW 23:31:35 32° WNW 23:34:45 10° NNW
SME Rocket 4.0 23:32:35 43° NNW 23:32:35 43° NNW 23:35:30 10° NNW
Cosmos 841 Rocket 4.0 23:26:39 10° NNW 23:31:24 49° W 23:31:24 49° W
Cosmos 1626 4.3 23:34:58 23° WNW 23:34:58 23° WNW 23:37:16 10° NNW
Tsikada Rocket 4.3 23:35:48 52° E 23:35:48 52° E 23:41:53 10° NNE
Cosmos 2263 Rocket 3.7 23:44:59 22° WSW 23:47:24 31° WNW 23:52:19 10° N
COSMOS 2406 4.3 23:44:09 10° N 23:49:18 34° ENE 23:49:39 34° ENE
